This demonstration page uses our WeatherBlox Daily Observations layout. Learn more.

Left ArrowRight Arrow

Hourly Observations for March 11, 2022

Temp ( °F °C ) Dew Point ( °F °C ) Humidity (%) Winds ( mph kmh ) Pressure ( in mb ) Visibility ( mi km ) Precip ( " mm )
12:59 am 00:59 Cloudy 46 7.8 39 3.9 77 77 N 6 9 30.14 1021 10 16 0.00 0.00
1:59 am 01:59 Cloudy 46 7.8 40 4.4 79 79 N 3 6 30.13 1020 10 16 0.00 0.00
2:59 am 02:59 Cloudy 45 7.2 39 3.9 80 80 NNE 3 6 30.11 1020 10 16 0.00 0.00
3:59 am 03:59 Mostly Cloudy 45 7.2 40 4.4 83 83 N 7 11 30.12 1020 10 16 0.00 0.00
4:59 am 04:59 Partly Cloudy 42 5.6 37 2.8 82 82 Calm 30.14 1021 7 11 0.00 0.00
5:59 am 05:59 Partly Cloudy with Mist and Fog 40 4.4 36 2.2 86 86 Calm 30.14 1021 5 8 0.00 0.00
6:59 am 06:59 Sunny with Mist and Fog 40 4.4 37 2.8 89 89 Calm 30.14 1021 3 5 0.00 0.00
7:59 am 07:59 Partly Cloudy 47 8.3 41 5 80 80 Calm 30.15 1021 7 11 0.00 0.00
8:47 am 08:47 Mostly Cloudy 49 9.4 42 5.6 77 77 E 5 7 30.14 1021 8 13 0.00 0.00
8:59 am 08:59 Partly Cloudy 48 8.9 41 5 77 77 E 6 9 30.13 1020 9 14 0.00 0.00
9:59 am 09:59 Partly Cloudy 50 10 42 5.6 74 74 VRB 6 9 30.14 1021 9 14 0.00 0.00
10:59 am 10:59 Partly Cloudy 51 10.6 42 5.6 71 71 NNE 8 13 30.13 1020 8 13 0.00 0.00
11:59 am 11:59 Mostly Sunny 53 11.7 43 6.1 69 69 VRB 7 11 30.11 1020 9 14 0.00 0.00
12:59 pm 12:59 Sunny 54 12.2 43 6.1 67 67 ENE 9 15 30.07 1018 10 16 0.00 0.00
1:59 pm 13:59 Partly Cloudy 55 12.8 43 6.1 64 64 E 7 11 30.04 1017 10 16 0.00 0.00
2:59 pm 14:59 Partly Cloudy 55 12.8 42 5.6 62 62 E 13 20 29.99 1016 10 16 0.00 0.00
3:59 pm 15:59 Mostly Cloudy 55 12.8 44 6.7 67 67 E 12 19 29.96 1015 10 16 0.00 0.00
4:59 pm 16:59 Mostly Cloudy 54 12.2 45 7.2 72 72 E 7 11 29.96 1015 10 16 0.00 0.00
5:59 pm 17:59 Mostly Cloudy 55 12.8 46 7.8 72 72 S 7 11 29.93 1014 10 16 0.00 0.00
6:59 pm 18:59 Mostly Cloudy 54 12.2 46 7.8 75 75 VRB 7 11 29.92 1013 10 16 0.00 0.00
7:59 pm 19:59 Mostly Cloudy 53 11.7 46 7.8 77 77 S 6 9 29.91 1013 10 16 0.00 0.00
8:54 pm 20:54 Mostly Cloudy 54 12 46 8 77 77 S 8 13 29.89 1012 10 16 0.00 0.00
8:59 pm 20:59 Mostly Cloudy 53 11.7 47 8.3 80 80 S 9 15 29.88 1012 10 16 0.00 0.00
9:59 pm 21:59 Cloudy 54 12.2 48 8.9 80 80 SSW 6 9 29.86 1011 10 16 0.00 0.00
10:59 pm 22:59 Cloudy with Rain 53 11.7 49 9.4 86 86 S 7 11 29.83 1010 3 5 0.25 6.35
11:59 pm 23:59 Cloudy with Rain 53 11.7 50 10 89 89 SSW 6 9 29.79 1009 2 3 0.34 8.64

Powered by AerisWeather